Location: Oberkirch
(48.5323°N, 8.0787°E)
Time: 19:40:05
(UTC+00:00)

Tiros 1 - Pass Details

Date: 16 February 2026
Orbit: 618 x 649 km, 48.4° (Epoch: 5 March)

Event Time Altitude Azimuth Distance (km) Brightness Sun altitude
Rises 11:01:36 0° 263° (W) 2,899 10.5 28.6°
Reaches altitude 10° 11:03:55 10° 263° (W) 1,989 9.7 28.7°
Maximum altitude 11:08:30 88° 177° (S) 625 7.6 28.8°
Drops below altitude 10° 11:13:04 10° 86° (E) 1,982 9.8 28.9°
Sets 11:15:22 0° 87° (E) 2,887 10.5 28.9°
